{"data":{"norad_id":61523,"intl_designator":"2024-183Q","name":"STARLINK-32305","alt_names":[],"object_type":"PAYLOAD","status":"ACTIVE","operator":null,"country":"US","launch_date":"2024-10-15","launch_site_code":"AFETR","launch_vehicle":null,"mission":null,"orbit_class":"UNKNOWN","rcs_meters":null,"size_class":null,"mass_kg":null,"dimensions":null,"purposes":["comms"],"wikipedia_slug":null,"has_3d_model":false,"image_url":null,"decayed_at":null,"tle_current":{"epoch":"2026-05-24T23:50:28.870944Z","epoch_age_seconds":69651,"freshness":"FRESH","line1":"1 61523U 24183Q   26144.99338971  .00000190  00000+0  18556-4 0  9999","line2":"2 61523  53.1598 148.1050 0001139  81.0124 279.1005 15.30189641 91337","mean_motion":15.30189641,"eccentricity":0.0001139,"inclination_deg":53.1598,"raan_deg":148.105,"arg_perigee_deg":81.0124,"mean_anomaly_deg":279.1005,"bstar":1.8556e-5,"rev_number":9133,"period_min":94.105982776026,"perigee_km":474.46539937693,"apogee_km":476.02660002426,"semimajor_km":6853.3829997006,"source":"CELESTRAK","updated_at":"2026-05-25T13:38:19.394567Z"}}}